THOR AGENA B DEB, 2092

Orbit data source: Space-Track

THOR AGENA B DEB, 2092 is space debris in LEO originally from a launch on Mon, 29 Nov 1965 UTC launched from the Air Force Western Test Range (AFWTR). Debris objects in space refer to the collection of defunct objects orbiting the Earth. Examples of debris include non-operational satellites, rocket bodies, and fragments generated from explosions, collisions, or faulty payload assembly.

Loading next visibility...
Identifier
2092, 1965-098H
Orbit
LEO
Country
Flag of USUS
Related business
Manufacturer
Unknown
Mission
Spacecraft
Bus & Motor
Unknown
Mass
~1 kg wet, ~1 kg dry
Launch date (UTC)
1965-11-29 (60 years ago)
Launch vehicle
Unknown
Launch site
Air Force Western Test Range (AFWTR)
Object type
Payload
Rocket body
Debris
Shape & HBR
Unknown
Radar Cross Section
Small (<0.1 m²)

Expand to show TLE details & history
Last TLE update: 12 hours ago

TLE from 12 hours ago
0 THOR AGENA B DEB
1  2092U 65098H   26110.26268013  .00000308  00000-0  10128-3 0  9995
2  2092  79.8652  50.3074 1296175 225.4775 123.3042 12.35013311673274
Epoch: 2026-04-20T06:18Z
TLE epoch observation values (Epoch: 2026-04-20T06:18:15.563Z)
Latitude
Longitude
107.38722°
Altitude
2,176.38 km
Speed
6.542 km/s
True Right ascension
03h 21m 13s
True Declination
0° 00' 00"
Sunlit
Object was in daylight at epoch
Visualization orbit readout
Latitude
Unknown
Longitude
Unknown
Altitude
Unknown
Speed
Unknown
Apparent Right ascension
Unknown
Apparent Declination
Unknown
Sunlit
N/A
Visualization observer readout
Local Sidereal Time
00:57:41
Azimuth
Unknown
Elevation
Unknown
Doppler factor
Unknown
Orbital elements
Apogee altitude
2,549.641 km
Perigee altitude
500.813 km
Semi-major axis
7,903.364 km
Eccentricity
0.12962
Inclination
79.8652°
RAAN
50.3074°
Arg. of periapsis
225.4775°
True anomaly
134.62768°
Mean anomaly
123.3042°
Eccentric anomaly
129.06999°
Mean motion
3.08905 °/min
Orbital period
116.54 mins
BSTAR
0.00010128
Loading maneuver chart data...
Computing Atmospheric mass density...
Loading historical data...
Loading historical data...
Loading historical data...
Loading historical data...
Loading historical data...
Loading historical data...
Loading historical data...

Documentation

Showing up to 5 results
|